Weather History for Fort Campbell, KY

Change the Weather History Date:

Saturday, November 17, 2012

  Actual Average Record
Temperature  
Mean Temperature 44 °F -  
Max Temperature 58 °F 56 °F 73 °F (2001)
Min Temperature 29 °F 37 °F 17 °F (1997)
Degree Days  
Heating Degree Days 22    
Moisture  
Dew Point 32 °F    
Average Humidity 69    
Maximum Humidity 93    
Minimum Humidity 38    
Precipitation  
Precipitation 0.00 in - - ()
Sea Level Pressure  
Sea Level Pressure 30.44 in    
Wind  
Wind Speed 3 mph (NE)    
Max Wind Speed 7 mph    
Max Gust Speed -    
Visibility 9 miles    
Events      
Averages and records for this station are not official NWS values.
T = Trace of Precipitation, MM = Missing Value Source: NWS Daily Summary

Daily Weather History Graph

Daily Weather History Graph

Search for Another Location

Airport:

Trip Planner

Search our weather history database for the weather conditions in past years. The results will help you decide how hot, cold, wet, or windy it might be!

Date:

Astronomy

Nov. 17, 2012 Rise Set
Actual Time 6:30 AM CST 4:39 PM CST
Civil Twilight 6:02 AM CST 5:07 PM CST
Nautical Twilight 5:31 AM CST 5:38 PM CST
Astronomical Twilight 5:00 AM CST 6:09 PM CST
Moon 10:14 AM CST (11/17) 8:48 PM CST (11/17)
Length of Visible Light 11h 04m
Length of Day
10h 08m
Waxing Crescent, 20% of the Moon is Illuminated
Nov 17
Waxing Crescent
Nov 20
First Quarter
Nov 28
Full
Dec 6
Last Quarter
Dec 13
New

Hourly Weather History & Observations

Time (CST) Temp. Windchill Dew Point Humidity Pressure Visibility Wind Dir Wind Speed Gust Speed Precip Events Conditions
12:55 AM 38.3 °F 34.8 °F 28.4 °F 68% 30.43 in 10.0 mi NE 4.6 mph - N/A   Clear
1:55 AM 36.9 °F 34.3 °F 28.9 °F 73% 30.44 in 10.0 mi North 3.5 mph - N/A   Clear
2:55 AM 32.9 °F 29.8 °F 28.0 °F 82% 30.44 in 10.0 mi NNE 3.5 mph - N/A   Clear
3:55 AM 32.0 °F - 28.9 °F 88% 30.44 in 10.0 mi Calm Calm - N/A   Clear
4:55 AM 30.4 °F - 28.6 °F 93% 30.45 in 10.0 mi Calm Calm - N/A   Clear
5:55 AM 29.5 °F 25.9 °F 27.7 °F 93% 30.46 in 10.0 mi NNE 3.5 mph - N/A   Clear
6:55 AM 32.0 °F 26.4 °F 29.5 °F 90% 30.47 in 10.0 mi NE 5.8 mph - N/A   Clear
7:55 AM 37.9 °F 34.4 °F 32.4 °F 80% 30.48 in 10.0 mi NE 4.6 mph - N/A   Clear
8:55 AM 43.2 °F 39.0 °F 32.9 °F 67% 30.49 in 10.0 mi East 6.9 mph - N/A   Clear
9:55 AM 46.9 °F - 33.8 °F 60% 30.50 in 10.0 mi Calm Calm - N/A   Clear
10:55 AM 50.9 °F - 33.3 °F 51% 30.48 in 10.0 mi Calm Calm - N/A   Clear
11:55 AM 53.6 °F - 33.6 °F 47% 30.46 in 8.0 mi Calm Calm - N/A   Clear
12:55 PM 56.1 °F - 33.8 °F 43% 30.43 in 10.0 mi Calm Calm - N/A   Clear
1:55 PM 57.2 °F - 33.4 °F 41% 30.41 in 10.0 mi NE 4.6 mph - N/A   Clear
2:55 PM 58.1 °F - 32.2 °F 38% 30.40 in 10.0 mi ENE 5.8 mph - N/A   Clear
3:55 PM 56.3 °F - 36.0 °F 46% 30.40 in 10.0 mi NE 4.6 mph - N/A   Clear
4:55 PM 52.7 °F - 34.2 °F 49% 30.41 in 10.0 mi Calm Calm - N/A   Clear
5:55 PM 45.9 °F - 32.7 °F 60% 30.41 in 10.0 mi Calm Calm - N/A   Clear
6:55 PM 43.5 °F - 32.7 °F 66% 30.42 in 10.0 mi Calm Calm - N/A   Clear
7:55 PM 40.6 °F - 32.0 °F 71% 30.43 in 9.0 mi Calm Calm - N/A   Clear
8:55 PM 37.9 °F 35.5 °F 31.8 °F 79% 30.42 in 9.0 mi NNE 3.5 mph - N/A   Clear
9:55 PM 37.0 °F 34.5 °F 32.0 °F 82% 30.42 in 5.0 mi NNE 3.5 mph - N/A   Haze
10:08 PM 37.4 °F 34.9 °F 32.0 °F 81% 30.42 in 5.0 mi NE 3.5 mph - N/A   Haze
10:18 PM 37.4 °F 34.9 °F 32.0 °F 81% 30.42 in 6.0 mi NE 3.5 mph - N/A   Haze
10:51 PM 37.4 °F 33.8 °F 32.0 °F 81% 30.42 in 7.0 mi NE 4.6 mph - N/A   Clear
10:55 PM 38.1 °F 34.6 °F 31.6 °F 77% 30.42 in 8.0 mi NE 4.6 mph - N/A   Clear
11:55 PM 41.7 °F 39.8 °F 31.3 °F 66% 30.40 in 10.0 mi ENE 3.5 mph - N/A   Clear